AD8BW Weather Reports


Display with metric or nautical units.
time (UTC)temp
F
wind
direction
speed
MPH
gust
MPH
rain 1hr
in
rain 24hr
in
rain mn
in
humidity
%
barometer
mb
20260903215805 70 179 0.0 4.0 0.00 0.99 0.99 95 1014.2
20260903214805 70 159 0.0 4.0 0.00 0.99 0.99 95 1014.2
20260903213804 70 194 2.0 5.0 0.01 0.99 0.99 95 1014.3
20260903212805 70 178 0.0 5.0 0.02 0.99 0.99 95 1014.6
20260903211802 70 0 0.0 4.0 0.04 0.99 0.99 94 1014.4
20260903210805 70 30 0.0 5.0 0.04 0.99 0.99 94 1014.4
20260903205800 70 42 0.0 5.0 0.05 0.99 0.99 94 1014.4
20260903204801 70 16 2.0 5.0 0.12 0.99 0.99 94 1014.6
20260903203759 70 346 2.0 11.0 0.27 0.98 0.98 94 1014.8
20260903202802 69 355 2.0 5.0 0.26 0.97 0.97 93 1014.6
20260903201804 70 343 2.0 7.0 0.24 0.95 0.95 93 1015.0
20260903200759 70 317 4.0 9.0 0.24 0.95 0.95 93 1015.5
20260903195759 70 342 5.0 9.0 0.23 0.94 0.94 92 1014.8
20260903194805 71 350 7.0 16.0 0.16 0.87 0.87 92 1014.8
20260903193759 71 333 7.0 18.0 0.00 0.71 0.71 92 1014.9
20260903192801 72 298 0.0 7.0 0.00 0.71 0.71 93 1014.5
20260903191759 72 344 2.0 5.0 0.00 0.71 0.71 93 1013.8
20260903190755 73 294 2.0 9.0 0.00 0.71 0.71 93 1013.7
20260903185756 74 349 2.0 11.0 0.00 0.71 0.71 93 1014.2
20260903184753 74 184 0.0 4.0 0.00 0.71 0.71 94 1013.5
20260903183755 74 98 0.0 0.0 0.00 0.71 0.71 93 1013.5
20260903182753 74 98 0.0 0.0 0.00 0.71 0.71 94 1013.6
20260903181751 74 98 0.0 0.0 0.00 0.71 0.71 94 1013.5
20260903180755 74 98 0.0 0.0 0.00 0.71 0.71 94 1013.4
20260903175754 74 98 0.0 0.0 0.00 0.71 0.71 93 1013.4
20260903174752 74 98 0.0 0.0 0.00 0.71 0.71 94 1013.4
20260903173752 73 98 0.0 0.0 0.01 0.71 0.71 94 1013.3
20260903172756 73 98 0.0 0.0 0.20 0.71 0.71 94 1013.5
20260903171751 72 98 0.0 0.0 0.33 0.71 0.71 95 1013.4
20260903170751 72 98 0.0 0.0 0.33 0.71 0.71 94 1013.4
20260903165753 71 98 0.0 0.0 0.33 0.71 0.71 94 1013.5
20260903164756 70 345 0.0 2.0 0.33 0.71 0.71 94 1013.7
20260903163749 69 344 2.0 12.0 0.38 0.70 0.70 91 1013.7
20260903162752 69 203 5.0 27.0 0.33 0.51 0.53 89 1014.8
20260903161751 69 200 0.0 4.0 0.38 0.38 0.38 89 1014.9
20260903160751 69 217 0.0 5.0 0.38 0.38 0.38 87 1015.5
20260903155750 69 329 2.0 5.0 0.38 0.38 0.38 86 1015.5
20260903154750 70 156 7.0 18.0 0.38 0.38 0.38 84 1015.7
20260903153746 72 130 9.0 20.0 0.32 0.32 0.33 82 1016.2
20260903152751 76 282 5.0 32.0 0.18 0.18 0.18 82 1017.2
20260903151743 79 344 0.0 5.0 0.00 0.00 0.00 83 1016.3
20260903150743 79 198 0.0 0.0 0.00 0.00 0.00 81 1014.8
20260903145746 79 198 0.0 0.0 0.00 0.00 0.00 80 1014.4
20260903144745 79 198 0.0 0.0 0.00 0.00 0.00 80 1014.0
20260903143743 79 198 0.0 4.0 0.00 0.00 0.00 80 1014.1
20260903142741 79 182 0.0 7.0 0.00 0.00 0.00 80 1014.2
20260903141744 78 327 0.0 4.0 0.00 0.00 0.00 82 1014.1
20260903140740 78 327 0.0 2.0 0.00 0.00 0.00 84 1014.1
20260903135749 77 327 0.0 4.0 0.00 0.00 0.00 85 1014.0
20260903134744 77 316 0.0 4.0 0.00 0.00 0.00 85 1014.1
20260903133739 76 317 0.0 4.0 0.00 0.00 0.00 86 1014.3
20260903132736 75 193 0.0 4.0 0.00 0.00 0.00 89 1014.3
20260903131735 74 269 0.0 0.0 0.00 0.00 0.00 91 1014.2
20260903130736 73 233 0.0 0.0 0.00 0.00 0.00 93 1014.2
20260903125735 72 181 0.0 0.0 0.00 0.00 0.00 93 1014.3
20260903124737 72 181 0.0 0.0 0.00 0.00 0.00 92 1014.5
20260903123737 71 181 0.0 0.0 0.00 0.00 0.00 92 1014.4
20260903122736 71 181 0.0 0.0 0.00 0.00 0.00 92 1014.6
20260903121730 71 181 0.0 0.0 0.00 0.00 0.00 92 1014.6
20260903120731 71 181 0.0 0.0 0.00 0.00 0.00 91 1014.5
20260903115728 71 181 0.0 0.0 0.00 0.00 0.00 91 1014.6
20260903114728 71 181 0.0 0.0 0.00 0.00 0.00 91 1014.5
20260903113730 71 181 0.0 0.0 0.00 0.00 0.00 91 1014.5
20260903112729 71 181 2.0 4.0 0.00 0.00 0.00 91 1014.4
20260903111727 71 202 0.0 0.0 0.00 0.00 0.00 90 1014.3
20260903110727 71 202 0.0 0.0 0.00 0.00 0.00 90 1014.3
20260903105730 71 202 0.0 0.0 0.00 0.00 0.00 90 1014.2
20260903104729 71 202 0.0 0.0 0.00 0.00 0.00 90 1014.1
20260903103729 71 202 0.0 0.0 0.00 0.00 0.00 90 1013.9
20260903102728 71 202 0.0 0.0 0.00 0.00 0.00 90 1013.9
20260903101728 71 202 0.0 0.0 0.00 0.00 0.00 90 1013.8
20260903100729 71 202 0.0 0.0 0.00 0.00 0.00 90 1013.8
20260903095728 72 202 0.0 0.0 0.00 0.00 0.00 90 1013.9
20260903094727 72 202 0.0 0.0 0.00 0.00 0.00 90 1013.8
20260903093726 72 202 0.0 0.0 0.00 0.00 0.00 90 1013.8
20260903092726 72 202 0.0 0.0 0.00 0.00 0.00 90 1013.7
20260903091727 72 202 0.0 0.0 0.00 0.00 0.00 90 1013.5
20260903090728 72 202 0.0 0.0 0.00 0.00 0.00 90 1013.5
20260903085725 72 202 0.0 0.0 0.00 0.00 0.00 90 1013.5
20260903084726 72 202 0.0 0.0 0.00 0.00 0.00 90 1013.4
20260903083727 72 202 0.0 0.0 0.00 0.00 0.00 90 1013.3
20260903082725 72 202 0.0 0.0 0.00 0.00 0.00 90 1013.2
20260903081724 72 202 0.0 0.0 0.00 0.00 0.00 90 1013.2
20260903080725 72 202 0.0 0.0 0.00 0.00 0.00 90 1013.2
20260903075719 72 202 0.0 0.0 0.00 0.00 0.00 90 1013.3
20260903074722 72 202 0.0 0.0 0.00 0.00 0.00 90 1013.4
20260903073719 72 202 0.0 0.0 0.00 0.00 0.00 90 1013.3
20260903072720 72 202 0.0 0.0 0.00 0.00 0.00 90 1013.4
20260903071719 72 202 0.0 0.0 0.00 0.00 0.00 89 1013.4
20260903070720 72 202 0.0 0.0 0.00 0.00 0.00 89 1013.4
20260903065719 72 202 0.0 0.0 0.00 0.00 0.00 89 1013.3
20260903064718 73 202 0.0 0.0 0.00 0.00 0.00 89 1013.3
20260903063725 73 202 0.0 4.0 0.00 0.00 0.00 89 1013.1
20260903062718 73 202 0.0 0.0 0.00 0.00 0.00 89 1013.3
20260903061714 73 202 2.0 5.0 0.00 0.00 0.00 89 1013.4
20260903060711 73 192 0.0 0.0 0.00 0.00 0.00 88 1013.5
20260903055711 73 189 0.0 0.0 0.00 0.00 0.00 88 1013.5
20260903054715 73 189 0.0 0.0 0.00 0.00 0.00 88 1013.5
20260903053712 73 189 0.0 0.0 0.00 0.00 0.00 88 1013.4
20260903052711 73 189 0.0 2.0 0.00 0.00 0.00 88 1013.5
20260903051712 74 205 0.0 2.0 0.00 0.00 0.00 87 1013.6
20260903050719 74 205 0.0 4.0 0.00 0.00 0.00 87 1013.6
20260903045710 74 205 0.0 0.0 0.00 0.00 0.00 87 1013.7
20260903044711 74 205 0.0 2.0 0.00 0.00 0.00 87 1013.4
20260903043709 74 205 0.0 4.0 0.00 0.00 0.00 86 1013.5
20260903042710 75 187 2.0 9.0 0.00 0.00 0.00 86 1013.5
20260903041709 75 191 4.0 9.0 0.00 0.00 0.00 86 1013.5
20260903040709 76 198 0.0 4.0 0.00 0.00 0.00 85 1013.3
20260903035707 76 194 0.0 7.0 0.00 0.00 0.00 85 1013.3
20260903034710 76 194 2.0 5.0 0.00 0.00 0.00 85 1013.4
20260903033710 77 188 4.0 12.0 0.00 0.00 0.00 86 1013.5
20260903032704 76 175 2.0 9.0 0.00 0.00 0.00 86 1013.1
20260903031703 76 165 4.0 11.0 0.00 0.00 0.00 85 1013.5
20260903030701 76 200 2.0 5.0 0.00 0.00 0.00 85 1012.8
20260903025705 77 355 0.0 2.0 0.00 0.00 0.00 85 1012.6
20260903024704 76 355 0.0 2.0 0.00 0.00 0.00 85 1011.7
20260903023700 77 355 0.0 4.0 0.00 0.00 0.00 85 1012.3
20260903022701 77 325 0.0 0.0 0.00 0.00 0.00 85 1012.1
20260903021703 77 325 0.0 0.0 0.00 0.00 0.00 84 1012.6
20260903020710 77 325 0.0 2.0 0.00 0.00 0.00 82 1013.1
20260903015659 78 325 0.0 2.0 0.00 0.00 0.00 81 1013.4
20260903014655 79 325 0.0 2.0 0.00 0.00 0.00 79 1013.3
20260903013655 79 325 2.0 5.0 0.00 0.00 0.00 78 1013.3
20260903012656 81 350 4.0 9.0 0.00 0.00 0.00 76 1013.0
20260903011657 82 306 4.0 7.0 0.00 0.00 0.00 70 1013.0
20260903010655 82 323 2.0 5.0 0.00 0.00 0.00 67 1012.6
20260903005654 82 210 0.0 2.0 0.00 0.00 0.00 66 1012.4
20260903004656 83 192 2.0 5.0 0.00 0.00 0.00 65 1012.3
20260903003659 83 192 4.0 9.0 0.00 0.00 0.00 64 1012.2
20260903002654 83 181 5.0 23.0 0.00 0.00 0.00 72 1012.2
20260903001656 82 193 2.0 5.0 0.00 0.00 0.00 76 1011.9
20260903000653 85 234 0.0 4.0 0.00 0.00 0.00 70 1012.1
20260902235653 86 182 0.0 4.0 0.00 0.00 0.00 67 1011.9
20260902234653 87 186 2.0 9.0 0.00 0.00 0.00 67 1012.3
20260902233652 87 171 0.0 4.0 0.00 0.00 0.00 67 1012.3
20260902232652 87 190 0.0 2.0 0.00 0.00 0.00 67 1012.2
20260902231652 87 185 0.0 4.0 0.00 0.00 0.00 66 1012.3
20260902230650 87 180 2.0 7.0 0.00 0.00 0.00 66 1012.4
20260902225658 88 182 2.0 9.0 0.00 0.00 0.00 65 1012.4
20260902224651 88 227 2.0 4.0 0.00 0.00 0.00 64 1012.4
20260902223650 89 206 4.0 12.0 0.00 0.00 0.00 63 1012.1
20260902222649 89 200 4.0 12.0 0.00 0.00 0.00 61 1011.8
20260902221651 90 238 2.0 16.0 0.00 0.00 0.00 62 1011.8
20260902220649 89 334 2.0 9.0 0.00 0.00 0.00 62 1011.8